KF0FSA Weather Reports


time (UTC)temp
C
wind
direction
speed
KPH
gust
KPH
rain 1hr
cm
rain 24hr
cm
rain mn
cm
humidity
%
barometer
mb
20260504130422 13 303 8.0 16.1 0.00 0.00 0.00 61 948.5
20260504110559 10 326 3.2 9.7 0.00 0.00 0.00 62 947.3
20260504081029 12 177 4.8 12.9 0.00 0.00 0.00 48 948.8
20260504045924 12 264 1.6 4.8 0.00 0.00 0.00 46 951.5
20260504045422 12 0 1.6 6.4 0.00 0.00 0.00 45 951.5
20260504044420 12 237 0.0 3.2 0.00 0.00 0.00 46 951.6
20260504042910 13 0 1.6 4.8 0.00 0.00 0.00 45 951.8
20260504033407 13 257 0.0 3.2 0.00 0.00 0.00 44 952.5
20260504030408 13 307 1.6 4.8 0.00 0.00 0.00 44 953.0
20260504025355 14 0 0.0 6.4 0.00 0.00 0.00 44 953.2
20260504023353 15 0 0.0 6.4 0.00 0.00 0.00 42 953.2
20260504021348 15 0 0.0 3.2 0.00 0.00 0.00 41 953.3
20260504011839 18 0 1.6 4.8 0.00 0.00 0.00 37 953.4
20260503235331 22 271 4.8 14.5 0.00 0.00 0.00 30 953.8
20260503233825 22 109 4.8 14.5 0.00 0.00 0.00 28 953.9
20260503223825 22 284 4.8 14.5 0.00 0.00 0.00 29 954.4
20260503223323 22 237 4.8 14.5 0.00 0.00 0.00 28 954.5
20260503221820 22 170 6.4 16.1 0.00 0.00 0.00 28 954.5
20260503201304 22 316 8.0 14.5 0.00 0.00 0.00 31 956.1
20260503200111 21 343 8.0 14.5 0.00 0.00 0.00 33 956.3
20260503192013 21 303 9.7 17.7 0.00 0.00 0.00 33 956.7
20260503191037 21 309 11.3 22.5 0.00 0.00 0.00 33 956.7
20260503190536 21 340 9.7 22.5 0.00 0.00 0.00 33 956.7
20260503190237 21 357 8.0 17.7 0.00 0.00 0.00 33 956.8
20260503185536 21 312 9.7 17.7 0.00 0.00 0.00 33 956.8
20260503185037 21 214 9.7 20.9 0.00 0.00 0.00 33 956.9
20260503184537 21 329 11.3 20.9 0.00 0.00 0.00 34 957.0
20260503184035 21 329 9.7 20.9 0.00 0.00 0.00 34 956.9
20260503183532 21 308 8.0 14.5 0.00 0.00 0.00 34 957.0
20260503183033 21 289 8.0 14.5 0.00 0.00 0.00 31 957.1
20260503182733 21 26 8.0 19.3 0.00 0.00 0.00 32 957.2
20260503182232 21 255 9.7 19.3 0.00 0.00 0.00 32 957.3
20260503181732 21 332 11.3 19.3 0.00 0.00 0.00 30 957.4
20260503181031 21 330 9.7 19.3 0.00 0.00 0.00 33 957.4
20260503180531 21 359 9.7 17.7 0.00 0.00 0.00 35 957.3
20260503180031 21 282 8.0 17.7 0.00 0.00 0.00 34 957.3
20260503175531 21 359 8.0 17.7 0.00 0.00 0.00 33 957.4
20260503175042 21 288 9.7 17.7 0.00 0.00 0.00 34 957.5
20260503174532 21 337 9.7 17.7 0.00 0.00 0.00 34 957.5
20260503174031 21 308 9.7 17.7 0.00 0.00 0.00 35 957.5
20260503173532 20 16 9.7 17.7 0.00 0.00 0.00 35 957.5
20260503173031 20 297 8.0 17.7 0.00 0.00 0.00 36 957.6
20260503172532 20 336 8.0 20.9 0.00 0.00 0.00 35 957.7
20260503172037 20 290 9.7 20.9 0.00 0.00 0.00 35 957.7
20260503171532 20 258 9.7 19.3 0.00 0.00 0.00 35 957.7
20260503171029 20 293 8.0 16.1 0.00 0.00 0.00 37 957.7
20260503170526 20 308 8.0 16.1 0.00 0.00 0.00 36 957.7
20260503150521 17 336 8.0 17.7 0.00 0.00 0.00 41 958.0